Date String (YYYY-MM-DD hh:mm:ss) UTC,Instrument flags,Ambient pressure (hPa),Sample flow (lpm),Bypass flow (lpm),Sample temperature (°C),Ambient temperature (°C),ASC tube jacket temperature (°C),LED temperature (°C),Box temperature (°C),Sample RH (%),Span deviation,Mass concentration (μg/m³),Mass concentration (μg/m³),Mass concentration (μg/m³)
DateTimeUTC,F1_M11,P_M11,Q1_M11,Q2_M11,T1_M11,T2_M11,T3_M11,T4_M11,T5_M11,U1_M11,ZSPAN_M11,X2_M11,X0_M11,X1_M11
2022-03-11 18:00:00,,0827.8,5.01,0.00,22.6,22.1,00.0,31.6,24.5,07.1,0001.6,0012.91,0019.32,0012.13
2022-03-11 18:01:00,,0827.8,4.99,0.00,22.7,22.1,00.0,31.6,24.5,07.5,0002.0,0013.06,0020.46,0012.25
2022-03-11 18:02:00,,0827.9,4.99,0.00,22.7,22.1,00.0,31.6,24.5,07.3,0002.1,0013.16,0021.38,0012.34
2022-03-11 18:03:00,,0827.9,5.00,0.00,22.7,22.1,00.0,31.6,24.4,07.3,0002.0,0013.26,0021.63,0012.41
2022-03-11 18:04:00,,0827.9,5.00,0.00,22.7,22.1,00.0,31.6,24.4,07.0,0002.6,0013.41,0022.21,0012.52
2022-03-11 18:05:00,,0827.9,5.00,0.00,22.6,22.0,00.0,31.6,24.4,07.0,0002.5,0013.54,0022.64,0012.65
2022-03-11 18:06:00,,0827.8,5.00,0.00,22.6,22.0,00.0,31.6,24.4,07.0,0002.1,0013.67,0023.90,0012.75
2022-03-11 18:07:00,,0827.8,5.00,0.00,22.6,22.0,00.0,31.6,24.4,07.0,0001.9,0013.74,0024.02,0012.81
2022-03-11 18:08:00,,0827.9,5.01,0.00,22.7,22.0,00.0,31.6,24.5,07.2,0001.6,0013.77,0024.05,0012.85
2022-03-11 18:09:00,,0827.9,5.00,0.00,22.7,22.0,00.0,31.6,24.5,07.8,0001.4,0013.81,0023.95,0012.92
2022-03-11 18:10:00,,0827.9,5.00,0.00,22.7,22.1,00.0,31.6,24.5,07.2,0001.5,0013.80,0023.63,0012.94
2022-03-11 18:11:00,,0827.9,4.99,0.00,22.7,22.1,00.0,31.6,24.4,07.3,0000.8,0013.81,0023.69,0012.97
2022-03-11 18:12:00,,0827.9,4.99,0.00,22.7,22.0,00.0,31.6,24.5,07.2,0000.6,0013.77,0022.76,0012.97
2022-03-11 18:13:00,,0827.9,5.00,0.00,22.7,22.0,00.0,31.6,24.5,07.1,0000.5,0013.75,0021.87,0012.96
2022-03-11 18:14:00,,0828.0,5.00,0.00,22.7,22.0,00.0,31.6,24.5,07.0,0000.9,0013.77,0022.17,0013.00
2022-03-11 18:15:00,,0827.9,4.99,0.00,22.7,22.0,00.0,31.6,24.5,07.3,0000.7,0013.75,0021.95,0013.01
2022-03-11 18:16:00,,0827.8,5.00,0.00,22.7,22.0,00.0,31.6,24.5,07.5,0000.9,0013.74,0021.56,0013.02
2022-03-11 18:17:00,,0827.8,5.00,0.00,22.7,22.0,00.0,31.6,24.5,07.7,0000.7,0013.70,0020.57,0013.02
2022-03-11 18:18:00,,0827.8,5.00,0.00,22.7,22.1,00.0,31.6,24.5,07.8,0000.8,0013.74,0020.66,0013.08
2022-03-11 18:19:00,,0827.8,5.00,0.00,22.7,22.1,00.0,31.6,24.6,08.1,0001.2,0013.80,0021.00,0013.13
2022-03-11 18:20:00,,0827.8,5.01,0.00,22.8,22.1,00.0,31.6,24.6,08.2,0001.1,0013.82,0020.55,0013.13
2022-03-11 18:21:00,,0827.8,5.00,0.00,22.8,22.1,00.0,31.7,24.6,08.2,0000.6,0013.83,0020.59,0013.14
2022-03-11 18:22:00,,0827.7,5.00,0.00,22.8,22.1,00.0,31.7,24.6,07.6,0000.8,0013.83,0020.57,0013.17
2022-03-11 18:23:00,,0827.7,5.00,0.00,22.8,22.2,00.0,31.7,24.6,07.7,0000.6,0013.86,0020.54,0013.20
2022-03-11 18:24:00,,0827.7,5.00,0.00,22.8,22.2,00.0,31.7,24.7,08.0,0000.3,0013.95,0020.71,0013.25
2022-03-11 18:25:00,,0827.8,5.00,0.00,22.8,22.2,00.0,31.7,24.7,07.8,0000.0,0014.00,0020.16,0013.28
2022-03-11 18:26:00,,0827.7,5.00,0.00,22.9,22.2,00.0,31.7,24.7,07.6,-000.1,0014.05,0019.77,0013.31
2022-03-11 18:27:00,,0827.7,5.00,0.00,22.9,22.2,00.0,31.7,24.7,07.4,-000.3,0014.06,0019.84,0013.32
2022-03-11 18:28:00,,0827.7,5.00,0.00,22.9,22.3,00.0,31.7,24.8,08.2,0000.0,0014.12,0019.74,0013.38
2022-03-11 18:29:00,,0827.7,5.00,0.00,22.9,22.3,00.0,31.8,24.8,08.4,0000.1,0014.21,0019.85,0013.47
2022-03-11 18:30:00,,0827.8,5.00,0.00,22.9,22.3,00.0,31.8,24.8,08.3,-000.0,0014.25,0019.48,0013.53
2022-03-11 18:31:00,,0827.8,5.01,0.00,22.9,22.3,00.0,31.8,24.8,07.9,-000.0,0014.25,0019.38,0013.56
2022-03-11 18:32:00,,0827.8,5.00,0.00,23.0,22.3,00.0,31.8,24.8,07.6,0000.1,0014.26,0019.73,0013.58
2022-03-11 18:33:00,,0827.7,5.00,0.00,23.0,22.3,00.0,31.8,24.8,07.5,0000.1,0014.28,0019.99,0013.57
2022-03-11 18:34:00,,0827.7,5.00,0.00,23.0,22.3,00.0,31.8,24.8,07.2,-000.1,0014.23,0019.98,0013.52
2022-03-11 18:35:00,,0827.7,5.00,0.00,23.0,22.3,00.0,31.8,24.9,07.0,0000.2,0014.11,0019.77,0013.44
2022-03-11 18:36:00,,0827.7,5.01,0.00,23.0,22.4,00.0,31.9,24.9,07.3,-000.3,0014.03,0019.92,0013.38
2022-03-11 18:37:00,,0827.6,5.00,0.00,23.0,22.4,00.0,31.9,24.9,07.3,-000.7,0013.96,0019.91,0013.34
2022-03-11 18:38:00,,0827.7,5.00,0.00,23.1,22.4,00.0,31.9,24.9,07.2,-000.4,0013.86,0019.83,0013.26
2022-03-11 18:39:00,,0827.7,5.00,0.00,23.1,22.4,00.0,31.9,24.9,07.2,-000.6,0013.75,0019.70,0013.13
2022-03-11 18:40:00,,0827.7,4.99,0.00,23.1,22.4,00.0,31.9,24.9,07.4,-000.8,0013.58,0019.49,0012.96
2022-03-11 18:41:00,,0827.7,4.99,0.00,23.1,22.4,00.0,31.9,24.9,07.0,-001.2,0013.40,0019.31,0012.78
2022-03-11 18:42:00,,0827.7,5.00,0.00,23.1,22.4,00.0,31.9,25.0,07.0,-001.2,0013.22,0019.80,0012.61
2022-03-11 18:43:00,,0827.7,4.99,0.00,23.1,22.4,00.0,31.9,25.0,07.1,-001.3,0013.08,0019.60,0012.45
2022-03-11 18:44:00,,0827.7,5.00,0.00,23.1,22.4,00.0,32.0,25.0,07.5,-001.1,0012.90,0019.03,0012.24
2022-03-11 18:45:00,,0827.7,5.01,0.00,23.1,22.5,00.0,32.0,25.0,07.0,-000.8,0012.76,0019.15,0012.10
2022-03-11 18:46:00,,0827.7,5.00,0.00,23.2,22.5,00.0,32.0,25.0,07.1,-000.9,0012.60,0019.46,0011.96
2022-03-11 18:47:00,,0827.7,5.00,0.00,23.2,22.5,00.0,32.0,25.0,07.0,-000.9,0012.41,0018.92,0011.81
2022-03-11 18:48:00,,0827.7,5.00,0.00,23.2,22.5,00.0,32.0,25.0,07.1,-000.7,0012.24,0018.70,0011.64
2022-03-11 18:49:00,,0827.7,4.99,0.00,23.2,22.5,00.0,32.0,25.0,07.2,-000.9,0012.07,0018.47,0011.49
2022-03-11 18:50:00,,0827.7,5.01,0.00,23.2,22.5,00.0,32.0,25.0,06.9,-001.2,0011.89,0018.22,0011.33
2022-03-11 18:51:00,,0827.7,5.00,0.00,23.2,22.5,00.0,32.1,25.0,06.8,-001.2,0011.66,0017.87,0011.14
2022-03-11 18:52:00,,0827.7,4.99,0.00,23.2,22.5,00.0,32.1,25.0,06.8,-001.0,0011.42,0017.64,0010.92
2022-03-11 18:53:00,,0827.6,5.01,0.00,23.2,22.5,00.0,32.1,25.1,06.6,-000.9,0011.25,0017.11,0010.76
2022-03-11 18:54:00,,0827.7,5.00,0.00,23.2,22.5,00.0,32.1,25.1,06.8,-000.9,0011.11,0016.70,0010.64
2022-03-11 18:55:00,,0827.6,5.00,0.00,23.2,22.5,00.0,32.1,25.1,06.5,-000.9,0010.98,0016.79,0010.54
2022-03-11 18:56:00,,0827.7,5.01,0.00,23.3,22.5,00.0,32.1,25.1,07.0,-001.0,0010.83,0016.36,0010.42
2022-03-11 18:57:00,,0827.7,5.00,0.00,23.3,22.5,00.0,32.1,25.1,07.4,-001.0,0010.75,0015.81,0010.32
2022-03-11 18:58:00,,0827.6,5.00,0.00,23.2,22.5,00.0,32.1,25.1,07.3,-000.7,0010.64,0015.67,0010.22
2022-03-11 18:59:00,,0827.6,4.99,0.00,23.3,22.5,00.0,32.1,25.1,07.3,-000.4,0010.56,0015.48,0010.13
